| time (UTC) | temp F | wind direction | speed MPH | gust MPH | rain 1hr in | rain 24hr in | rain mn in | humidity % | barometer mb |
| 20260510044550 | 76 | 348 | 0.0 | 0.0 | 0.00 | 0.01 | 0.01 | 82 | 1007.2 |
| 20260510043052 | 77 | 348 | 0.0 | 0.0 | 0.00 | 0.01 | 0.01 | 82 | 1007.2 |
| 20260510041606 | 77 | 348 | 0.0 | 0.0 | 0.00 | 0.01 | 0.01 | 82 | 1007.2 |
| 20260510040047 | 77 | 348 | 0.0 | 0.0 | 0.00 | 0.01 | 0.01 | 81 | 1007.1 |
| 20260510034547 | 78 | 348 | 0.0 | 0.0 | 0.00 | 0.01 | 0.01 | 80 | 1007.0 |
| 20260510033047 | 79 | 348 | 0.0 | 0.0 | 0.00 | 0.01 | 0.01 | 80 | 1006.9 |
| 20260510031545 | 79 | 348 | 0.0 | 0.0 | 0.00 | 0.01 | 0.01 | 79 | 1006.7 |
| 20260510030049 | 80 | 348 | 0.0 | 0.0 | 0.00 | 0.01 | 0.01 | 79 | 1006.5 |
| 20260510024554 | 80 | 348 | 0.0 | 0.0 | 0.00 | 0.01 | 0.01 | 78 | 1006.4 |
| 20260510023044 | 81 | 348 | 0.0 | 0.0 | 0.00 | 0.01 | 0.01 | 77 | 1006.1 |
| 20260510021544 | 81 | 348 | 0.0 | 0.0 | 0.00 | 0.01 | 0.01 | 75 | 1005.9 |
| 20260510020049 | 82 | 348 | 0.0 | 0.0 | 0.00 | 0.01 | 0.01 | 73 | 1005.7 |
| 20260510014543 | 82 | 348 | 0.0 | 0.0 | 0.00 | 0.01 | 0.01 | 72 | 1005.6 |
| 20260510013048 | 83 | 348 | 0.0 | 0.0 | 0.00 | 0.01 | 0.01 | 71 | 1005.4 |
| 20260510011542 | 83 | 348 | 0.0 | 0.0 | 0.00 | 0.01 | 0.01 | 69 | 1005.4 |
| 20260510010058 | 85 | 348 | 0.0 | 0.0 | 0.00 | 0.01 | 0.01 | 67 | 1005.2 |
| 20260510004541 | 85 | 348 | 0.0 | 0.0 | 0.00 | 0.01 | 0.01 | 64 | 1005.2 |
| 20260510003040 | 86 | 348 | 0.0 | 0.0 | 0.00 | 0.01 | 0.01 | 62 | 1005.1 |
| 20260510001539 | 87 | 348 | 0.0 | 0.0 | 0.00 | 0.01 | 0.01 | 60 | 1004.9 |
| 20260510000042 | 88 | 348 | 0.0 | 0.0 | 0.00 | 0.01 | 0.01 | 54 | 1004.9 |
| 20260509234557 | 88 | 348 | 0.0 | 0.0 | 0.00 | 0.01 | 0.01 | 50 | 1004.7 |
| 20260509233038 | 88 | 348 | 0.0 | 0.0 | 0.00 | 0.01 | 0.01 | 50 | 1004.6 |
| 20260509231538 | 89 | 348 | 0.0 | 0.0 | 0.00 | 0.01 | 0.01 | 52 | 1004.6 |
| 20260509230037 | 89 | 348 | 0.0 | 0.0 | 0.00 | 0.01 | 0.01 | 52 | 1004.6 |
| 20260509224537 | 89 | 348 | 0.0 | 0.0 | 0.00 | 0.01 | 0.01 | 53 | 1004.5 |
| 20260509223036 | 89 | 348 | 0.0 | 0.0 | 0.00 | 0.01 | 0.01 | 51 | 1004.6 |
| 20260509221559 | 89 | 348 | 0.0 | 0.0 | 0.00 | 0.01 | 0.01 | 53 | 1004.5 |
| 20260509220034 | 90 | 348 | 0.0 | 0.0 | 0.00 | 0.01 | 0.01 | 53 | 1004.6 |
| 20260509214535 | 91 | 348 | 0.0 | 0.0 | 0.00 | 0.01 | 0.01 | 51 | 1004.7 |
| 20260509213032 | 93 | 348 | 0.0 | 0.0 | 0.00 | 0.01 | 0.01 | 49 | 1004.7 |
| 20260509211530 | 93 | 348 | 0.0 | 0.0 | 0.00 | 0.01 | 0.01 | 49 | 1004.9 |
| 20260509210028 | 93 | 348 | 0.0 | 0.0 | 0.00 | 0.01 | 0.01 | 51 | 1005.1 |
| 20260509204527 | 93 | 348 | 0.0 | 0.0 | 0.00 | 0.01 | 0.01 | 48 | 1005.4 |
| 20260509203024 | 92 | 348 | 0.0 | 0.0 | 0.00 | 0.01 | 0.01 | 46 | 1005.6 |
| 20260509201523 | 92 | 348 | 0.0 | 0.0 | 0.00 | 0.01 | 0.01 | 47 | 1005.8 |
| 20260509200020 | 92 | 348 | 0.0 | 0.0 | 0.00 | 0.01 | 0.01 | 55 | 1006.2 |
| 20260509194518 | 91 | 348 | 0.0 | 0.0 | 0.00 | 0.01 | 0.01 | 58 | 1006.1 |
| 20260509193014 | 90 | 348 | 0.0 | 0.0 | 0.00 | 0.01 | 0.01 | 60 | 1006.1 |
| 20260509191512 | 90 | 348 | 0.0 | 0.0 | 0.00 | 0.01 | 0.01 | 61 | 1006.2 |
| 20260509190012 | 89 | 348 | 0.0 | 0.0 | 0.00 | 0.01 | 0.01 | 63 | 1006.4 |
| 20260509184521 | 89 | 348 | 0.0 | 0.0 | 0.00 | 0.01 | 0.01 | 66 | 1006.7 |
| 20260509183006 | 88 | 348 | 0.0 | 0.0 | 0.00 | 0.01 | 0.01 | 67 | 1006.9 |
| 20260509181504 | 87 | 348 | 0.0 | 0.0 | 0.00 | 0.01 | 0.01 | 66 | 1007.1 |
| 20260509180002 | 87 | 348 | 0.0 | 0.0 | 0.00 | 0.01 | 0.01 | 70 | 1007.1 |
| 20260509174601 | 86 | 348 | 0.0 | 0.0 | 0.00 | 0.01 | 0.01 | 70 | 1007.3 |
| 20260509173108 | 85 | 348 | 0.0 | 0.0 | 0.00 | 0.01 | 0.01 | 73 | 1007.7 |
| 20260509171612 | 84 | 348 | 0.0 | 0.0 | 0.00 | 0.01 | 0.01 | 75 | 1008.0 |
| 20260509170053 | 83 | 349 | 0.0 | 0.0 | 0.00 | 0.01 | 0.01 | 78 | 1007.8 |
| 20260509164554 | 83 | 349 | 0.0 | 0.0 | 0.00 | 0.01 | 0.01 | 78 | 1007.8 |
| 20260509163053 | 82 | 349 | 0.0 | 0.0 | 0.00 | 0.01 | 0.01 | 79 | 1008.0 |
| 20260509161543 | 80 | 349 | 0.0 | 0.0 | 0.00 | 0.01 | 0.01 | 83 | 1008.2 |
| 20260509160042 | 80 | 349 | 0.0 | 0.0 | 0.00 | 0.01 | 0.01 | 84 | 1008.1 |
| 20260509154540 | 78 | 348 | 0.0 | 0.0 | 0.00 | 0.01 | 0.01 | 88 | 1008.2 |
| 20260509153038 | 77 | 348 | 0.0 | 0.0 | 0.00 | 0.01 | 0.01 | 89 | 1008.0 |
| 20260509151535 | 76 | 348 | 0.0 | 0.0 | 0.00 | 0.01 | 0.01 | 90 | 1007.7 |
| 20260509150032 | 76 | 348 | 0.0 | 0.0 | 0.00 | 0.01 | 0.01 | 91 | 1007.8 |
| 20260509144530 | 76 | 348 | 0.0 | 0.0 | 0.00 | 0.01 | 0.01 | 92 | 1007.6 |
| 20260509143028 | 75 | 348 | 0.0 | 0.0 | 0.00 | 0.01 | 0.01 | 93 | 1007.6 |
| 20260509141534 | 75 | 348 | 0.0 | 0.0 | 0.00 | 0.01 | 0.01 | 95 | 1007.1 |
| 20260509140032 | 74 | 348 | 0.0 | 0.0 | 0.00 | 0.01 | 0.01 | 97 | 1006.8 |
| 20260509134522 | 73 | 348 | 0.0 | 0.0 | 0.00 | 0.01 | 0.01 | 97 | 1006.8 |
| 20260509133022 | 73 | 348 | 0.0 | 0.0 | 0.00 | 0.01 | 0.01 | 97 | 1007.0 |
| 20260509131519 | 72 | 348 | 0.0 | 0.0 | 0.00 | 0.01 | 0.01 | 97 | 1007.5 |
| 20260509130030 | 72 | 348 | 0.0 | 0.0 | 0.00 | 0.01 | 0.01 | 97 | 1008.1 |
| 20260509124526 | 72 | 348 | 0.0 | 0.0 | 0.00 | 0.01 | 0.01 | 97 | 1007.6 |
| 20260509123025 | 71 | 348 | 0.0 | 0.0 | 0.00 | 0.01 | 0.01 | 97 | 1007.3 |
| 20260509121520 | 71 | 348 | 0.0 | 0.0 | 0.00 | 0.01 | 0.01 | 96 | 1007.4 |
| 20260509120016 | 71 | 348 | 0.0 | 0.0 | 0.00 | 0.01 | 0.01 | 96 | 1007.3 |
| 20260509114515 | 72 | 348 | 0.0 | 0.0 | 0.00 | 0.01 | 0.01 | 96 | 1007.7 |
| 20260509113013 | 72 | 348 | 0.0 | 0.0 | 0.00 | 0.01 | 0.01 | 97 | 1008.0 |
| 20260509111512 | 72 | 348 | 0.0 | 0.0 | 0.00 | 0.01 | 0.01 | 96 | 1008.3 |
| 20260509110020 | 72 | 348 | 0.0 | 0.0 | 0.00 | 0.01 | 0.01 | 96 | 1008.4 |
| 20260509104514 | 72 | 348 | 0.0 | 0.0 | 0.00 | 0.01 | 0.01 | 96 | 1008.8 |
| 20260509103010 | 72 | 348 | 0.0 | 0.0 | 0.00 | 0.01 | 0.01 | 96 | 1008.7 |
| 20260509101515 | 72 | 348 | 0.0 | 0.0 | 0.00 | 0.01 | 0.01 | 96 | 1008.4 |
| 20260509100006 | 72 | 348 | 0.0 | 0.0 | 0.00 | 0.01 | 0.01 | 96 | 1007.8 |
| 20260509094504 | 72 | 348 | 0.0 | 0.0 | 0.00 | 0.01 | 0.01 | 96 | 1007.1 |
| 20260509093006 | 72 | 348 | 0.0 | 0.0 | 0.00 | 0.01 | 0.01 | 95 | 1006.9 |
| 20260509091507 | 72 | 348 | 0.0 | 0.0 | 0.01 | 0.01 | 0.01 | 95 | 1007.0 |
| 20260509090002 | 72 | 348 | 0.0 | 0.0 | 0.01 | 0.01 | 0.01 | 95 | 1006.9 |
| 20260509084503 | 72 | 348 | 0.0 | 0.0 | 0.01 | 0.01 | 0.01 | 95 | 1007.0 |
| 20260509083100 | 73 | 348 | 0.0 | 0.0 | 0.01 | 0.01 | 0.01 | 95 | 1007.2 |
| 20260509081600 | 73 | 348 | 0.0 | 0.0 | 0.00 | 0.00 | 0.00 | 94 | 1007.5 |
| 20260509080059 | 73 | 348 | 0.0 | 0.0 | 0.00 | 0.00 | 0.00 | 94 | 1007.3 |
| 20260509074611 | 73 | 348 | 0.0 | 0.0 | 0.00 | 0.00 | 0.00 | 94 | 1007.5 |
| 20260509073058 | 73 | 348 | 0.0 | 0.0 | 0.00 | 0.00 | 0.00 | 93 | 1007.3 |
| 20260509071609 | 73 | 348 | 0.0 | 0.0 | 0.00 | 0.00 | 0.00 | 93 | 1007.7 |
| 20260509070106 | 73 | 348 | 0.0 | 0.0 | 0.00 | 0.00 | 0.00 | 93 | 1007.8 |
| 20260509064555 | 73 | 348 | 0.0 | 0.0 | 0.00 | 0.00 | 0.00 | 93 | 1007.5 |
| 20260509063054 | 73 | 348 | 0.0 | 0.0 | 0.00 | 0.00 | 0.00 | 93 | 1007.4 |
| 20260509061556 | 73 | 348 | 0.0 | 0.0 | 0.00 | 0.00 | 0.00 | 93 | 1007.3 |
| 20260509060051 | 73 | 348 | 0.0 | 0.0 | 0.00 | 0.00 | 0.00 | 93 | 1006.9 |
| 20260509054611 | 73 | 348 | 0.0 | 0.0 | 0.00 | 0.00 | 0.00 | 93 | 1007.0 |
| 20260509053140 | 73 | 348 | 0.0 | 0.0 | 0.00 | 0.00 | 0.00 | 93 | 1006.8 |
| 20260509051550 | 73 | 348 | 0.0 | 0.0 | 0.00 | 0.00 | 0.00 | 92 | 1006.2 |
| 20260509050047 | 73 | 348 | 0.0 | 0.0 | 0.00 | 0.00 | 0.00 | 92 | 1006.2 |